�������l�o���
Date,Time,MP-1(��Sv/h),MP-2(��Sv/h),MP-3(��Sv/h),MP-4(��Sv/h),MP-5(��Sv/h),MP-6(��Sv/h),MP-7(��Sv/h),MP-8(��Sv/h),����,����(m/s),���J
2018/03/11,00:00,0.824,1.389,0.861,1.619,1.079,0.470,0.836,0.805,�k�k��,4.9,��
2018/03/11,00:10,0.825,1.389,0.859,1.623,1.075,0.468,0.836,0.806,�k�k��,4.9,��
2018/03/11,00:20,0.824,1.388,0.858,1.622,1.078,0.470,0.835,0.807,�k�k��,5.0,��
2018/03/11,00:30,0.826,1.392,0.862,1.622,1.074,0.470,0.835,0.808,�k�k��,4.8,��
2018/03/11,00:40,0.824,1.390,0.862,1.621,1.076,0.472,0.835,0.807,�k�k��,5.2,��
2018/03/11,00:50,0.824,1.388,0.862,1.621,1.076,0.469,0.835,0.807,�k�k��,4.9,��
2018/03/11,01:00,0.823,1.387,0.863,1.622,1.076,0.471,0.836,0.808,�k�k��,4.0,��
2018/03/11,01:10,0.825,1.390,0.860,1.621,1.077,0.471,0.836,0.806,�k�k��,5.4,��
2018/03/11,01:20,0.824,1.390,0.860,1.624,1.077,0.472,0.836,0.805,�k��,5.3,��
2018/03/11,01:30,0.826,1.387,0.861,1.621,1.075,0.471,0.833,0.804,�k��,5.0,��
2018/03/11,01:40,0.824,1.388,0.860,1.619,1.073,0.470,0.834,0.807,�k��,4.5,��
2018/03/11,01:50,0.822,1.389,0.860,1.620,1.078,0.470,0.835,0.806,�k��,4.7,��
2018/03/11,02:00,0.824,1.387,0.860,1.621,1.078,0.471,0.835,0.807,�k�k��,4.9,��
2018/03/11,02:10,0.822,1.389,0.861,1.622,1.074,0.469,0.836,0.807,�k�k��,3.6,��
2018/03/11,02:20,0.824,1.391,0.861,1.623,1.076,0.470,0.835,0.805,�k�k��,4.2,��
2018/03/11,02:30,0.824,1.389,0.860,1.622,1.077,0.470,0.834,0.807,�k��,4.4,��
2018/03/11,02:40,0.823,1.390,0.861,1.623,1.076,0.469,0.835,0.807,�k��,4.7,��
2018/03/11,02:50,0.822,1.390,0.859,1.620,1.074,0.470,0.834,0.806,�k��,4.5,��
2018/03/11,03:00,0.824,1.390,0.860,1.621,1.074,0.470,0.836,0.807,�k��,4.0,��
2018/03/11,03:10,0.824,1.389,0.861,1.620,1.078,0.470,0.835,0.808,�k��,4.4,��
2018/03/11,03:20,0.822,1.387,0.860,1.620,1.076,0.469,0.836,0.808,�k��,4.3,��
2018/03/11,03:30,0.822,1.387,0.861,1.620,1.076,0.470,0.836,0.807,�k��,4.0,��
2018/03/11,03:40,0.822,1.389,0.860,1.619,1.075,0.469,0.836,0.807,�k��,3.8,��
2018/03/11,03:50,0.822,1.386,0.859,1.624,1.076,0.470,0.837,0.807,�k��,4.1,��
2018/03/11,04:00,0.822,1.385,0.860,1.619,1.076,0.471,0.833,0.807,�k��,3.7,��
2018/03/11,04:10,0.821,1.387,0.859,1.621,1.075,0.469,0.835,0.805,�k��,3.7,��
2018/03/11,04:20,0.819,1.388,0.861,1.622,1.077,0.469,0.835,0.809,�k��,4.1,��
2018/03/11,04:30,0.822,1.386,0.860,1.621,1.076,0.470,0.836,0.806,�k��,4.0,��
2018/03/11,04:40,0.821,1.388,0.860,1.619,1.073,0.469,0.836,0.806,�k�k��,4.5,��
2018/03/11,04:50,0.820,1.388,0.860,1.619,1.076,0.468,0.834,0.807,�k�k��,3.2,��
2018/03/11,05:00,0.821,1.388,0.859,1.620,1.075,0.469,0.836,0.807,�k�k��,3.0,��
2018/03/11,05:10,0.822,1.387,0.859,1.620,1.075,0.468,0.835,0.806,�k�k��,2.9,��
2018/03/11,05:20,0.820,1.386,0.860,1.621,1.072,0.469,0.835,0.806,�k��,2.9,��
2018/03/11,05:30,0.820,1.386,0.860,1.624,1.073,0.470,0.836,0.805,�k�k��,3.1,��
2018/03/11,05:40,0.822,1.388,0.858,1.620,1.074,0.469,0.836,0.807,�k�k��,3.3,��
2018/03/11,05:50,0.820,1.387,0.858,1.620,1.073,0.469,0.835,0.807,�k�k��,3.1,��
2018/03/11,06:00,0.822,1.385,0.859,1.621,1.074,0.470,0.835,0.807,�k�k��,3.4,��
2018/03/11,06:10,0.820,1.386,0.860,1.623,1.071,0.470,0.834,0.806,�k�k��,2.6,��
2018/03/11,06:20,0.821,1.384,0.860,1.621,1.072,0.470,0.835,0.806,�k��,2.6,��
2018/03/11,06:30,0.820,1.388,0.858,1.619,1.072,0.468,0.835,0.806,�k��,3.0,��
2018/03/11,06:40,0.821,1.388,0.860,1.620,1.075,0.469,0.834,0.807,�k��,3.4,��
2018/03/11,06:50,0.822,1.388,0.859,1.620,1.074,0.470,0.835,0.806,���k��,3.0,��
2018/03/11,07:00,0.819,1.389,0.861,1.620,1.072,0.470,0.834,0.808,��,2.3,��
2018/03/11,07:10,0.823,1.388,0.860,1.622,1.075,0.470,0.836,0.808,��,1.7,��
2018/03/11,07:20,0.820,1.386,0.861,1.622,1.076,0.468,0.836,0.808,��,1.5,��
2018/03/11,07:30,0.822,1.388,0.861,1.621,1.075,0.470,0.836,0.808,���쐼,1.1,��
2018/03/11,07:40,0.824,1.389,0.860,1.622,1.076,0.469,0.837,0.808,���쐼,1.2,��
2018/03/11,07:50,0.826,1.387,0.861,1.625,1.076,0.470,0.836,0.807,���k��,1.2,��
2018/03/11,08:00,0.824,1.390,0.860,1.624,1.078,0.471,0.838,0.808,���k��,0.9,��
2018/03/11,08:10,0.826,1.390,0.864,1.624,1.078,0.471,0.838,0.808,-,CALM,��
2018/03/11,08:20,0.826,1.393,0.863,1.624,1.078,0.471,0.838,0.809,��,0.6,��
2018/03/11,08:30,0.824,1.393,0.863,1.627,1.079,0.470,0.838,0.808,���쓌,0.9,��
2018/03/11,08:40,0.828,1.392,0.864,1.623,1.081,0.472,0.837,0.808,-,CALM,�L
2018/03/11,08:50,0.827,1.393,0.865,1.624,1.082,0.472,0.837,0.809,���쓌,1.2,�L
2018/03/11,09:00,0.828,1.393,0.864,1.628,1.081,0.471,0.837,0.810,���쓌,1.2,��
2018/03/11,09:10,0.828,1.396,0.866,1.624,1.080,0.471,0.837,0.808,�쓌,1.2,��
2018/03/11,09:20,0.828,1.394,0.867,1.624,1.082,0.473,0.836,0.809,��,0.9,��
2018/03/11,09:30,0.830,1.396,0.867,1.626,1.081,0.473,0.836,0.810,�쓌,1.7,��
2018/03/11,09:40,0.829,1.395,0.867,1.627,1.083,0.471,0.837,0.809,��,0.6,��
2018/03/11,09:50,0.829,1.397,0.865,1.625,1.083,0.472,0.837,0.810,���k��,1.7,��
2018/03/11,10:00,0.830,1.396,0.866,1.624,1.081,0.471,0.837,0.809,���k��,1.2,��
2018/03/11,10:10,0.830,1.393,0.867,1.627,1.084,0.474,0.838,0.810,��,1.9,��
2018/03/11,10:20,0.829,1.395,0.866,1.627,1.085,0.473,0.836,0.809,���쓌,1.5,��
2018/03/11,10:30,0.829,1.394,0.866,1.629,1.085,0.474,0.838,0.811,���쓌,1.2,��
2018/03/11,10:40,0.830,1.398,0.869,1.627,1.085,0.472,0.837,0.811,��,1.5,��
2018/03/11,10:50,0.829,1.399,0.869,1.627,1.086,0.473,0.838,0.808,���쓌,1.4,��
2018/03/11,11:00,0.830,1.397,0.867,1.625,1.085,0.472,0.838,0.809,��,1.1,��
2018/03/11,11:10,0.831,1.397,0.868,1.629,1.086,0.474,0.838,0.810,��,1.2,��
2018/03/11,11:20,0.831,1.394,0.867,1.628,1.086,0.474,0.836,0.811,��,1.4,��
2018/03/11,11:30,0.831,1.398,0.866,1.627,1.087,0.473,0.837,0.810,���k��,1.4,��
2018/03/11,11:40,0.832,1.399,0.867,1.629,1.087,0.474,0.836,0.811,���k��,1.2,��
2018/03/11,11:50,0.831,1.400,0.869,1.628,1.087,0.473,0.840,0.810,�k�k��,1.1,�L
2018/03/11,12:00,0.832,1.400,0.867,1.628,1.086,0.472,0.840,0.810,�k�k��,0.9,�L
2018/03/11,12:10,0.832,1.399,0.868,1.630,1.089,0.473,0.839,0.809,��,1.1,�L
2018/03/11,12:20,0.832,1.397,0.866,1.630,1.085,0.474,0.838,0.808,���k��,0.9,�L
2018/03/11,12:30,0.831,1.398,0.866,1.628,1.085,0.473,0.837,0.810,�k�k��,0.6,�L
2018/03/11,12:40,0.832,1.396,0.868,1.626,1.085,0.474,0.839,0.809,�k,1.2,�L
2018/03/11,12:50,0.831,1.396,0.867,1.630,1.086,0.473,0.839,0.809,�k��,1.2,�L
2018/03/11,13:00,0.833,1.398,0.867,1.627,1.088,0.475,0.837,0.811,���k��,0.9,�L
2018/03/11,13:10,0.834,1.399,0.868,1.629,1.087,0.474,0.839,0.811,���k��,1.2,�L
2018/03/11,13:20,0.834,1.399,0.869,1.632,1.088,0.474,0.838,0.811,���쓌,1.5,�L
2018/03/11,13:30,0.832,1.399,0.868,1.628,1.086,0.472,0.839,0.810,���쓌,1.7,��
2018/03/11,13:40,0.834,1.398,0.869,1.629,1.087,0.474,0.840,0.810,���쓌,1.8,��
2018/03/11,13:50,0.834,1.400,0.868,1.630,1.087,0.475,0.842,0.810,���쓌,3.0,��
2018/03/11,14:00,0.833,1.401,0.871,1.631,1.088,0.475,0.840,0.811,���쓌,3.6,��
2018/03/11,14:10,0.834,1.401,0.869,1.630,1.088,0.475,0.838,0.811,�쓌,4.4,��
2018/03/11,14:20,0.834,1.399,0.870,1.629,1.087,0.474,0.840,0.810,�쓌,3.5,��
2018/03/11,14:30,0.834,1.401,0.870,1.628,1.087,0.474,0.841,0.811,�쓌,3.7,��
2018/03/11,14:40,0.834,1.401,0.869,1.635,1.088,0.476,0.840,0.810,�쓌,3.7,��
2018/03/11,14:50,0.834,1.402,0.871,1.631,1.088,0.476,0.840,0.809,�쓌,4.6,��
2018/03/11,15:00,0.834,1.402,0.870,1.630,1.088,0.476,0.840,0.812,�쓌,4.7,��
2018/03/11,15:10,0.833,1.402,0.871,1.631,1.091,0.475,0.839,0.811,�쓌,4.7,��
2018/03/11,15:20,0.834,1.401,0.872,1.633,1.090,0.475,0.838,0.810,�쓌,5.4,��
2018/03/11,15:30,0.835,1.402,0.871,1.634,1.089,0.475,0.838,0.811,��쓌,6.3,��
2018/03/11,15:40,0.833,1.402,0.870,1.631,1.089,0.476,0.839,0.811,��쓌,7.3,��
2018/03/11,15:50,0.833,1.401,0.870,1.632,1.090,0.476,0.838,0.811,��쓌,7.7,��
2018/03/11,16:00,0.834,1.400,0.870,1.631,1.086,0.476,0.839,0.811,��쓌,6.1,��
2018/03/11,16:10,0.834,1.401,0.869,1.631,1.087,0.476,0.840,0.809,��쓌,5.3,��
2018/03/11,16:20,0.836,1.402,0.872,1.633,1.092,0.475,0.840,0.811,��쓌,4.5,��
2018/03/11,16:30,0.836,1.405,0.871,1.632,1.088,0.475,0.839,0.811,��쓌,3.7,��
2018/03/11,16:40,0.834,1.399,0.872,1.631,1.090,0.476,0.841,0.811,��쓌,4.2,��
2018/03/11,16:50,0.835,1.404,0.872,1.631,1.091,0.476,0.840,0.811,��,4.3,��
2018/03/11,17:00,0.835,1.402,0.872,1.631,1.089,0.476,0.842,0.808,�쐼,3.0,��
2018/03/11,17:10,0.836,1.405,0.873,1.631,1.089,0.476,0.842,0.811,�쐼,2.6,��
2018/03/11,17:20,0.833,1.404,0.872,1.634,1.089,0.476,0.843,0.812,��쐼,2.8,�L
2018/03/11,17:30,0.832,1.402,0.870,1.628,1.090,0.476,0.842,0.811,�쐼,1.9,��
2018/03/11,17:40,0.836,1.401,0.871,1.631,1.089,0.477,0.843,0.810,���쐼,2.0,��
2018/03/11,17:50,0.834,1.402,0.871,1.633,1.088,0.476,0.842,0.811,���쐼,2.6,��
2018/03/11,18:00,0.835,1.402,0.871,1.635,1.093,0.478,0.843,0.810,��,3.1,��
2018/03/11,18:10,0.834,1.399,0.872,1.630,1.090,0.476,0.843,0.811,��,3.2,��
2018/03/11,18:20,0.833,1.402,0.871,1.634,1.091,0.477,0.843,0.812,���k��,2.2,��
2018/03/11,18:30,0.835,1.402,0.871,1.632,1.090,0.477,0.840,0.811,���k��,3.2,��
2018/03/11,18:40,0.835,1.401,0.870,1.634,1.091,0.475,0.842,0.809,��,3.6,��
2018/03/11,18:50,0.837,1.399,0.873,1.635,1.091,0.476,0.840,0.811,��,3.7,��
2018/03/11,19:00,0.834,1.401,0.870,1.632,1.090,0.477,0.842,0.810,���쐼,4.4,��
2018/03/11,19:10,0.834,1.398,0.870,1.632,1.088,0.476,0.840,0.810,���k��,7.4,��
2018/03/11,19:20,0.834,1.399,0.872,1.632,1.088,0.475,0.841,0.811,��,8.9,��
2018/03/11,19:30,0.834,1.400,0.870,1.628,1.091,0.476,0.841,0.811,��,8.0,��
2018/03/11,19:40,0.834,1.402,0.873,1.630,1.091,0.476,0.843,0.813,��,7.4,��
2018/03/11,19:50,0.835,1.403,0.873,1.633,1.091,0.476,0.841,0.811,��,6.3,��
2018/03/11,20:00,0.836,1.403,0.872,1.635,1.093,0.477,0.843,0.811,��,9.3,��
2018/03/11,20:10,0.835,1.401,0.872,1.634,1.090,0.476,0.844,0.811,��,11.1,��
2018/03/11,20:20,0.833,1.401,0.872,1.632,1.090,0.477,0.844,0.812,��,9.7,��
2018/03/11,20:30,0.834,1.403,0.869,1.633,1.092,0.476,0.843,0.810,��,9.6,��
2018/03/11,20:40,0.833,1.401,0.871,1.632,1.092,0.475,0.842,0.813,��,8.4,��
2018/03/11,20:50,0.834,1.398,0.872,1.636,1.087,0.476,0.842,0.810,��,8.5,��
2018/03/11,21:00,0.834,1.403,0.872,1.633,1.090,0.478,0.842,0.810,��,8.2,��
2018/03/11,21:10,0.835,1.401,0.873,1.634,1.093,0.474,0.842,0.812,���쐼,6.1,��
2018/03/11,21:20,0.834,1.403,0.869,1.634,1.090,0.477,0.842,0.810,��,6.0,��
2018/03/11,21:30,0.833,1.398,0.872,1.633,1.092,0.476,0.842,0.811,��,5.2,��
2018/03/11,21:40,0.835,1.400,0.873,1.634,1.092,0.477,0.842,0.812,��,5.5,��
2018/03/11,21:50,0.834,1.401,0.871,1.637,1.092,0.476,0.843,0.810,��,5.3,��
2018/03/11,22:00,0.833,1.400,0.871,1.635,1.089,0.476,0.841,0.811,���쐼,5.2,��
2018/03/11,22:10,0.834,1.402,0.871,1.637,1.090,0.474,0.841,0.812,���쐼,6.8,��
2018/03/11,22:20,0.833,1.403,0.872,1.634,1.091,0.475,0.842,0.811,��,5.2,��
2018/03/11,22:30,0.835,1.403,0.873,1.634,1.090,0.475,0.843,0.810,��,3.9,��
2018/03/11,22:40,0.834,1.400,0.871,1.636,1.092,0.476,0.841,0.810,��,2.8,��
2018/03/11,22:50,0.834,1.400,0.873,1.633,1.094,0.477,0.841,0.813,��,4.7,��
2018/03/11,23:00,0.835,1.400,0.873,1.634,1.091,0.476,0.841,0.813,��,4.3,��
2018/03/11,23:10,0.833,1.400,0.872,1.637,1.093,0.477,0.841,0.810,��,4.1,��
2018/03/11,23:20,0.834,1.401,0.869,1.635,1.092,0.475,0.840,0.812,��,3.5,��
2018/03/11,23:30,0.834,1.401,0.870,1.634,1.090,0.475,0.841,0.812,���쐼,3.4,��
2018/03/11,23:40,0.834,1.399,0.871,1.633,1.092,0.476,0.841,0.810,���쐼,4.5,��
2018/03/11,23:50,0.835,1.405,0.871,1.634,1.092,0.475,0.841,0.812,���쐼,5.3,��
